Previsão horária em Celinki

Hoje, 30 Julho, Sexta-feira

Tempo Temperatura Precipitação Vento Pressão Humidade
00:00 +20°C° 0 mm 3 m/s 752 mmHg 60%
01:00 +19°C° 0 mm 3 m/s 752 mmHg 62%
02:00 +18°C° 0 mm 3 m/s 752 mmHg 66%
03:00 +17°C° 0 mm 3 m/s 752 mmHg 71%
04:00 +16°C° 0 mm 3 m/s 752 mmHg 76%
05:00 +17°C° 0 mm 3 m/s 752 mmHg 69%
06:00 +18°C° 0 mm 3 m/s 752 mmHg 62%
07:00 +20°C° 0 mm 3 m/s 752 mmHg 56%
08:00 +22°C° 0 mm 4 m/s 752 mmHg 51%
09:00 +23°C° 0 mm 5 m/s 752 mmHg 47%
10:00 +26°C° 0 mm 6 m/s 751 mmHg 43%
11:00 +27°C° 0 mm 6 m/s 751 mmHg 41%
12:00 +28°C° 0 mm 6 m/s 751 mmHg 39%
13:00 +28°C° 0 mm 6 m/s 750 mmHg 37%
14:00 +28°C° 0 mm 6 m/s 750 mmHg 37%
15:00 +28°C° 0 mm 6 m/s 750 mmHg 37%
16:00 +28°C° 0 mm 6 m/s 750 mmHg 37%
17:00 +27°C° 0 mm 5 m/s 750 mmHg 42%
18:00 +26°C° 0 mm 3 m/s 749 mmHg 47%
19:00 +24°C° 0 mm 2 m/s 749 mmHg 52%
20:00 +23°C° 0 mm 2 m/s 750 mmHg 55%
21:00 +22°C° 0 mm 1 m/s 750 mmHg 59%
22:00 +21°C° 0 mm 1 m/s 750 mmHg 62%
23:00 +20°C° 0 mm 1 m/s 750 mmHg 63%

Amanhã, 31 Julho, Sábado

Tempo Temperatura Precipitação Vento Pressão Humidade
00:00 +20°C° 0 mm 1 m/s 749 mmHg 64%
01:00 +19°C° 0 mm 2 m/s 749 mmHg 65%
02:00 +18°C° 0 mm 2 m/s 749 mmHg 66%
03:00 +18°C° 0 mm 2 m/s 749 mmHg 66%
04:00 +18°C° 0 mm 2 m/s 749 mmHg 67%
05:00 +19°C° 0 mm 3 m/s 749 mmHg 65%
06:00 +21°C° 0 mm 4 m/s 749 mmHg 63%
07:00 +22°C° 0 mm 4 m/s 749 mmHg 62%
08:00 +23°C° 0 mm 5 m/s 749 mmHg 56%
09:00 +25°C° 0 mm 5 m/s 749 mmHg 50%
10:00 +26°C° 0 mm 6 m/s 749 mmHg 45%
11:00 +27°C° 0 mm 6 m/s 749 mmHg 41%
12:00 +28°C° 0 mm 7 m/s 749 mmHg 37%
13:00 +28°C° 0 mm 7 m/s 749 mmHg 33%
14:00 +28°C° 0 mm 7 m/s 748 mmHg 32%
15:00 +28°C° 0 mm 7 m/s 748 mmHg 31%
16:00 +28°C° 0 mm 8 m/s 748 mmHg 31%
17:00 +27°C° 0 mm 7 m/s 748 mmHg 35%
18:00 +26°C° 0 mm 6 m/s 749 mmHg 39%
19:00 +25°C° 0 mm 5 m/s 749 mmHg 44%
20:00 +22°C° 0 mm 5 m/s 749 mmHg 49%
21:00 +20°C° 0 mm 4 m/s 749 mmHg 55%
22:00 +18°C° 0 mm 3 m/s 750 mmHg 61%
23:00 +17°C° 0 mm 3 m/s 750 mmHg 64%

Depois de amanhã, 1 Agosto, Domingo

Tempo Temperatura Precipitação Vento Pressão Humidade
00:00 +17°C° 0 mm 3 m/s 750 mmHg 67%
01:00 +16°C° 0 mm 3 m/s 750 mmHg 70%
02:00 +16°C° 0 mm 3 m/s 750 mmHg 73%
03:00 +14°C° 0 mm 3 m/s 750 mmHg 76%
04:00 +15°C° 0 mm 2 m/s 750 mmHg 79%
05:00 +16°C° 0 mm 3 m/s 750 mmHg 75%
06:00 +17°C° 0 mm 3 m/s 750 mmHg 71%
07:00 +18°C° 0 mm 3 m/s 751 mmHg 67%
08:00 +19°C° 0 mm 3 m/s 751 mmHg 64%
09:00 +20°C° 0 mm 3 m/s 750 mmHg 60%
10:00 +21°C° 0 mm 3 m/s 750 mmHg 57%
11:00 +22°C° 0 mm 3 m/s 750 mmHg 54%
12:00 +24°C° 0 mm 3 m/s 750 mmHg 52%
13:00 +24°C° 0 mm 3 m/s 750 mmHg 50%
14:00 +24°C° 0 mm 3 m/s 750 mmHg 51%
15:00 +22°C° 0 mm 3 m/s 750 mmHg 53%
16:00 +22°C° 0 mm 3 m/s 750 mmHg 54%
17:00 +21°C° 0 mm 2 m/s 750 mmHg 57%
18:00 +21°C° 0 mm 2 m/s 750 mmHg 60%
19:00 +21°C° 0 mm 1 m/s 750 mmHg 63%
20:00 +19°C° 0 mm 2 m/s 750 mmHg 68%
21:00 +18°C° 0 mm 2 m/s 750 mmHg 72%
22:00 +17°C° 0 mm 3 m/s 750 mmHg 77%
23:00 +17°C° 0 mm 3 m/s 750 mmHg 79%

2 Agosto, Segunda-feira

Tempo Temperatura Precipitação Vento Pressão Humidade
00:00 +16°C° 0 mm 3 m/s 750 mmHg 80%
01:00 +16°C° 0 mm 3 m/s 750 mmHg 82%
02:00 +16°C° 0 mm 3 m/s 750 mmHg 85%
03:00 +14°C° 0 mm 3 m/s 750 mmHg 87%
04:00 +14°C° 0 mm 3 m/s 750 mmHg 89%
05:00 +16°C° 0 mm 3 m/s 750 mmHg 83%
06:00 +17°C° 0 mm 4 m/s 750 mmHg 77%
07:00 +19°C° 0 mm 4 m/s 751 mmHg 72%
08:00 +20°C° 0.2 mm 5 m/s 751 mmHg 66%
09:00 +21°C° 0.2 mm 5 m/s 751 mmHg 61%
10:00 +22°C° 0.2 mm 5 m/s 751 mmHg 56%
11:00 +22°C° 0.5 mm 6 m/s 751 mmHg 56%
12:00 +22°C° 0.5 mm 6 m/s 751 mmHg 57%
13:00 +22°C° 0.5 mm 6 m/s 752 mmHg 57%
14:00 +22°C° 0.1 mm 6 m/s 752 mmHg 54%
15:00 +22°C° 0.1 mm 5 m/s 752 mmHg 51%
16:00 +22°C° 0.1 mm 5 m/s 752 mmHg 48%
17:00 +22°C° 0 mm 5 m/s 752 mmHg 49%
18:00 +21°C° 0 mm 4 m/s 753 mmHg 50%
19:00 +20°C° 0 mm 4 m/s 753 mmHg 51%
20:00 +19°C° 0 mm 3 m/s 753 mmHg 55%
21:00 +18°C° 0 mm 3 m/s 754 mmHg 59%
22:00 +17°C° 0 mm 2 m/s 754 mmHg 62%
23:00 +16°C° 0 mm 3 m/s 754 mmHg 66%

3 Agosto, Terça-feira

Tempo Temperatura Precipitação Vento Pressão Humidade
00:00 +14°C° 0 mm 3 m/s 754 mmHg 71%
01:00 +13°C° 0 mm 3 m/s 755 mmHg 75%
02:00 +13°C° 0 mm 3 m/s 755 mmHg 77%
03:00 +12°C° 0 mm 3 m/s 755 mmHg 79%
04:00 +13°C° 0 mm 2 m/s 755 mmHg 81%
05:00 +14°C° 0 mm 2 m/s 755 mmHg 74%
06:00 +16°C° 0 mm 2 m/s 756 mmHg 68%
07:00 +17°C° 0 mm 2 m/s 756 mmHg 61%
08:00 +19°C° 0 mm 3 m/s 756 mmHg 55%
09:00 +21°C° 0 mm 3 m/s 756 mmHg 49%
10:00 +24°C° 0 mm 3 m/s 756 mmHg 44%
11:00 +24°C° 0 mm 3 m/s 755 mmHg 42%
12:00 +25°C° 0 mm 2 m/s 755 mmHg 41%
13:00 +26°C° 0 mm 2 m/s 755 mmHg 40%
14:00 +24°C° 0.1 mm 2 m/s 755 mmHg 47%
15:00 +23°C° 0.1 mm 2 m/s 754 mmHg 54%
16:00 +21°C° 0.1 mm 2 m/s 754 mmHg 61%
17:00 +20°C° 0.2 mm 2 m/s 754 mmHg 66%
18:00 +20°C° 0.2 mm 2 m/s 754 mmHg 70%
19:00 +19°C° 0.2 mm 2 m/s 754 mmHg 75%
20:00 +18°C° 1.2 mm 2 m/s 754 mmHg 80%
21:00 +17°C° 1.2 mm 2 m/s 754 mmHg 86%
22:00 +16°C° 1.2 mm 2 m/s 755 mmHg 92%
23:00 +16°C° 0.4 mm 2 m/s 754 mmHg 92%

4 Agosto, Quarta-feira

Tempo Temperatura Precipitação Vento Pressão Humidade
00:00 +16°C° 0.4 mm 2 m/s 754 mmHg 92%
01:00 +16°C° 0.4 mm 2 m/s 754 mmHg 92%
02:00 +16°C° 0.2 mm 2 m/s 754 mmHg 92%
03:00 +16°C° 0.2 mm 2 m/s 754 mmHg 93%
04:00 +16°C° 0.2 mm 1 m/s 755 mmHg 93%
05:00 +16°C° 0.5 mm 2 m/s 755 mmHg 93%
06:00 +16°C° 0.5 mm 2 m/s 755 mmHg 92%
07:00 +16°C° 0.5 mm 2 m/s 755 mmHg 92%
08:00 +17°C° 0.1 mm 2 m/s 755 mmHg 86%
09:00 +18°C° 0.1 mm 2 m/s 755 mmHg 81%
10:00 +19°C° 0.1 mm 2 m/s 755 mmHg 76%
11:00 +20°C° 0.6 mm 2 m/s 755 mmHg 71%
12:00 +21°C° 0.6 mm 2 m/s 755 mmHg 66%
13:00 +23°C° 0.6 mm 2 m/s 755 mmHg 61%
14:00 +22°C° 0.2 mm 3 m/s 755 mmHg 58%
15:00 +22°C° 0.2 mm 3 m/s 755 mmHg 54%
16:00 +24°C° 0.2 mm 3 m/s 754 mmHg 51%
17:00 +22°C° 0 mm 3 m/s 755 mmHg 52%
18:00 +21°C° 0 mm 2 m/s 755 mmHg 54%
19:00 +20°C° 0 mm 2 m/s 755 mmHg 56%
20:00 +19°C° 0 mm 2 m/s 755 mmHg 58%
21:00 +18°C° 0 mm 2 m/s 755 mmHg 59%
22:00 +18°C° 0 mm 2 m/s 755 mmHg 61%
23:00 +17°C° 0 mm 2 m/s 755 mmHg 62%
Mostrar mais

Necessitamos do seu Consentimento

A Meteoprog e os seus Fornecedores de Serviços podem armazenar e aceder a dados pessoais como cookies, identificadores do dispositivo ou outras tecnologias semelhantes existentes no seu dispositivo e processar estes dados para personalizar conteúdos e anúncios, assim como funcionalidades nas redes sociais e análise de tráfego.

  • Armazenar e/ou aceder a informações no seu dispositivo

    Os cookies, identificadores do dispositivo ou outras informações podem ser armazenados ou acedidos no seu dispositivo, para os fins acima indicados.

  • Anúncios e conteúdos personalizados, medição de anúncios e conteúdos, dados sobre o público-alvo e desenvolvimento de produtos

    Os anúncios e os conteúdos podem ser personalizados com base num perfil. Podem ser adicionados dados adicionais para uma maior personalização dos anúncios e dos conteúdos. A eficácia dos anúncios e dos conteúdos pode ser medida. Podem ser obtidas informações sobre o público que visualizou os anúncios e os conteúdos. Estes dados podem ser usados para desenvolver ou melhorar sistemas, softwares ou a experiência do utilizador.

Ao clicar em "Eu concordo”, permitirá o uso de cookies, identificadores do dispositivo e web beacons mencionados ou outras tecnologias semelhantes. As configurações do navegador do seu dispositivo podem ser alteradas.

Para certos fins, podem ser invocados interesses legítimos ao invés de consentimento. Pode ler mais informação sobre este assunto na nossa Política de Privacidade e Cookies.